Regional Weather Roundup
Issued by NWS Upton, NY

Current Version | Previous Version | Graphics & Text | Print | Product List | Glossary Off
Versions: 1 2 3 4 5 6 7 8 9 10 11 12 13 14 15 16 17 18 19 20 21 22 23 24 25 26 27 28 29 30 31 32 33 34 35 36 37 38 39 40 41 42 43 44 45 46 47

000
ASUS41 KOKX 030404
RWROKX

REGIONAL WEATHER ROUNDUP
NATIONAL WEATHER SERVICE NEW YORK NY
1200 AM EDT MON AUG 03 2015

NOTE: "FAIR" INDICATES FEW OR NO CLOUDS BELOW 12,000 FEET WITH NO
SIGNIFICANT WEATHER AND/OR OBSTRUCTIONS TO VISIBILITY.

NYZ071-072-176-178-NJZ106-104-030500-
NEW YORK CITY METRO AREA


CITY           SKY/WX    TMP DP  RH WIND       PRES   REMARKS
CENTRAL PARK   CLEAR     79  56  45 CALM      29.89S
LAGUARDIA APRT PTCLDY    80  62  54 S6        29.85F
KENNEDY INTL   PTCLDY    77  65  66 S10       29.88R
NEWARK/LIBERTY PTCLDY    79  57  46 S5        29.86S
BRNX BOT. GARD   N/A     73  64  73 SE1       29.88R
TETERBORO      CLEAR     76  59  55 SW3       29.85S
$$

NYZ177-179-078>081-030500-
LONG ISLAND NEW YORK

CITY           SKY/WX    TMP DP  RH WIND       PRES   REMARKS
FARMINGDALE    CLEAR     76  69  79 SW7       29.87S
ISLIP          PTCLDY    76  70  82 SW8       29.86S
SHIRLEY        CLEAR     75  70  84 S8        29.88F
WESTHAMPTON    CLEAR     74  71  91 S6        29.90S
MONTAUK POINT    N/A     75  71  87 S6        29.89F
$$

NYZ052-065-067-030500-
HUDSON VALLEY

CITY           SKY/WX    TMP DP  RH WIND       PRES   REMARKS
WHITE PLAINS   CLEAR     69  65  86 CALM      29.87S
NEWBURGH       CLEAR     72  59  64 SW6       29.87S
MONTGOMERY     CLEAR     64  58  80 S3        29.87R
POUGHKEEPSIE   CLEAR     66  58  75 CALM      29.85R
ALBANY         PTCLDY    74  58  57 S7        29.80F
$$

NJZ001-105-106-008-010-013-015-019>022-104-030500-
NEW JERSEY

CITY           SKY/WX    TMP DP  RH WIND       PRES   REMARKS
NEWARK/LIBERTY PTCLDY    79  57  46 S5        29.86S
TETERBORO      CLEAR     76  59  55 SW3       29.85S
CALDWELL       CLEAR     73  56  54 CALM      29.87S
MORRISTOWN     CLEAR     64  57  77 CALM      29.87S
SOMERVILLE     CLEAR     66  59  78 CALM      29.86R
SUSSEX         CLEAR     63  60  90 CALM      29.88R
ANDOVER          N/A     64  62  93 CALM      29.89R
TRENTON        CLEAR     74  57  55 S5        29.88R
MILLVILLE      PTCLDY    73  66  78 CALM      29.90F
ATLANTIC CITY  PTCLDY    73  64  73 S6        29.90S
WRIGHTSTOWN    PTCLDY    69  61  76 SW6       29.86F
TOMS RIVER       N/A     70  63  78 SW5       29.90S
BELMAR         CLEAR     73  61  64 SW7       29.89S
$$

PAZ047>061-062-071-030500-
EASTERN PENNSYLVANIA

CITY           SKY/WX    TMP DP  RH WIND       PRES   REMARKS
PHILADELPHIA   PTCLDY    77  63  61 S9        29.89S
ALLENTOWN      CLEAR     72  60  66 NW3       29.87S
SCRANTON       CLEAR     74  58  57 CALM      29.86F
$$

CTZ002-004>006-009-010-012-RIZ004-006-007-MAZ004-011-015-030500-
SOUTHERN NEW ENGLAND
 IN CT

CITY           SKY/WX    TMP DP  RH WIND       PRES   REMARKS
BRADLEY INTL   CLEAR     71  61  70 S8        29.85S
HARTFORD       CLEAR     73  65  75 S10       29.85S
DANBURY        CLEAR     73  62  68 S8        29.88S
WTRBRY/OXFORD  CLEAR     70  61  73 S3        29.90F
BRIDGEPORT     CLEAR     76  69  79 SW5       29.87R
MERIDEN        CLEAR     69  63  81 CALM      29.87S
NEW HAVEN      CLEAR     69  66  90 CALM      29.87S
CHESTER        FAIR      70  68  94 S3        29.89S
GROTON         CLEAR     69  67  93 CALM      29.88S
WILLIMANTIC    CLEAR     69  65  86 SE3       29.88S

 IN RI

CITY           SKY/WX    TMP DP  RH WIND       PRES   REMARKS
PROVIDENCE     CLEAR     70  67  90 S6        29.89F
BLOCK ISLAND     N/A     72  70  94 S9        29.90S
WESTERLY       CLEAR     69  67  93 CALM      29.89F

 IN MA

CITY           SKY/WX    TMP DP  RH WIND       PRES   REMARKS
BOSTON         PTCLDY    72  63  73 SW12      29.87S
WORCESTER      CLEAR     66  61  84 S10       29.89F
WESTFIELD      CLEAR     67  59  75 SW3       29.85F
PROVINCETOWN   CLEAR     72  59  64 S9        29.88F
NANTUCKET      CLEAR     70  64  81 S10       29.91F
$$

ANZ330-335-338-340-345-350-353-355-030500-
COASTAL MARINE OBSERVATIONS


STATION/POSITION TIME  SKY/WX   TEMP    WIND        PRES    VSBY  WAVE
                                AIR SEA DIR/SP/G                  HT/PER
                 (UTC)          (F)     (DEG/KT/KT) (MB)    (MI)  (FT/S)
NY HARB ENTRANCE 0250            78 78  200/ 14/ 16 1011.0          3/ 7
4S FIRE IS       NOT AVBL
20S FIRE ISLAND  0250            77 76  200/  8/ 10 1011.9          3/ 8
GREAT SOUTH BAY  0300            77 81  220/ 12/ 16   N/A
23SW MTP         0350            76 75  200/ 12/ 14 1011.5          3/ 8
HUDSON CANYON    NOT AVBL
KINGS POINT      0300            76 70  170/  3/  7 1010.5
EXECUTION ROCKS  0300            75     170/  4/  6   N/A
CENTRAL LI SOUND NOT AVBL
EASTERN LI SOUND 0300            71 69  150/  4/  4   N/A
ROBBINS REEF     0300            77     170/  8/  9 1010.1
$$


>>>>>>>>>>>>>>>>>>>>>>>>>>>> KEY <<<<<<<<<<<<<<<<<<<<<<<<<<<
>                                                          <
>     SKY/WX - SKY CONDITION/PRESENT WEATHER               <
>     TMP    - TEMPERATURE IN FAHRENHEIT                   <
>     DP     - DEWPOINT IN FAHRENHEIT                      <
>     RH     - RELATIVE HUMIDITY IN PERCENT                <
>     WIND   - DIRECTION AND SPEED IN MPH                  <
>     PRES   - MEAN SEA LEVEL PRESSURE IN INCHES OF HG     <
>     WCI    - WIND CHILL INDEX                            <
>     VSB    - VISIBILITY IN MILES                         <
>     HX     - HEAT INDEX                                  <
>     TC     - TEMPERATURE IN CELSIUS                      <
>     VRB    - VARIABLE WIND DIRECTION                     <
>                                                          <
>>>>>>>>>>>>>>>>>>>>>>>>>>>> KEY <<<<<<<<<<<<<<<<<<<<<<<<<<<





USA.gov is the U.S. government's official web portal to all federal, state and local government web resources and services.